Terug naar catalogus

STARLINK-30219

ActiefCommunicatieVLEO
NORAD 57507·PAYLOAD·🇺🇸 United States

Gelanceerd Aug 7, 2023 vanaf Cape Canaveral Space Force Station

Loading…

Volgende Passages (komende 24 uur)

TLE

VersSource: CelesTrak SupGP

Epoch: Sep 14, 2026, 22:31 UTC

1 57507C 23113N   26257.93868056 -.00022561  00000+0 -81693-3 0  2575
2 57507  43.0027  24.1705 0001550 267.3798 118.9920 15.27598586    11

Volg STARLINK-30219 in realtime met AllMySat

Download on the App Store